Regional Weather Roundup
Issued by NWS

Home | Current Version | Previous Version | Graphics & Text | Print | Product List | Glossary On
Versions: 1 2 3 4 5 6 7 8 9 10 11 12 13 14 15 16 17 18 19 20 21 22 23 24 25 26 27 28 29 30 31 32 33 34 35 36 37 38 39 40 41 42 43 44 45 46 47 48 49 50
000
ASUS43 KLMK 270002
RWRKY
KENTUCKY REGIONAL WEATHER ROUNDUP
NATIONAL WEATHER SERVICE LOUISVILLE KY
800 PM EDT THU MAR 26 2015

NOTE "FAIR" INDICATES FEW OR NO CLOUDS BELOW 12,000 FEET
WITH NO SIGNIFICANT WEATHER AND/OR OBSTRUCTIONS TO VISIBILITY.

KYZ001>023-026-027-061>063-070>075-270100-
WESTERN AND SOUTH CENTRAL KENTUCKY

CITY           SKY/WX    TMP DP  RH WIND       PRES   REMARKS
PADUCAH        MOCLDY    44  33  65 N10       30.01S
HENDERSON      MOCLDY    43  32  65 NW6       30.01R
OWENSBORO      CLOUDY    43  35  73 N8        30.01R
HOPKINSVILLE   CLOUDY    41  37  87 VRB6      29.98R
BOWLING GREEN  LGT RAIN  43  40  89 CALM      29.97R
GLASGOW        NOT AVBL
$$

KYZ024-025-028>034-038-045-046-053-270100-
NORTH CENTRAL KENTUCKY

CITY           SKY/WX    TMP DP  RH WIND       PRES   REMARKS
LOUISVILLE/SDF MOCLDY    43  35  73 N9        29.97R
LOUISVILLE/LOU CLOUDY    44  36  73 NW9       29.97R
FORT KNOX      NOT AVBL
$$

KYZ035>037-039>044-047>052-055>060-089>105-270100-
NORTHEAST KENTUCKY

CITY           SKY/WX    TMP DP  RH WIND       PRES   REMARKS
LEXINGTON      CLOUDY    43  39  86 NW13      29.93R
COVINGTON      CLOUDY    42  35  76 NW12      29.93R
FRANKFORT      LGT RAIN  43  38  82 E6        29.90F
$$

KYZ054-064>069-076>088-106>120-270100-
SOUTHEAST KENTUCKY

CITY           SKY/WX    TMP DP  RH WIND       PRES   REMARKS
JACKSON        LGT RAIN  44  41  89 N8        29.90R FOG
LONDON         RAIN      46  41  82 CALM      29.92R
SOMERSET       NOT AVBL
MIDDLESBORO    NOT AVBL
MONTICELLO     CLOUDY    45  42  89 N10       29.98R
$$



USA.gov is the U.S. government's official web portal to all federal, state and local government web resources and services.